925  
ASUS42 KCHS 130712  
RWRCHS  
 
REGIONAL WEATHER ROUNDUP  
NATIONAL WEATHER SERVICE CHARLESTON SC  
300 AM EDT SAT AUG 13 2022  
 
NOTE: "FAIR" INDICATES FEW OR NO CLOUDS BELOW 12,000 FEET WITH NO  
SIGNIFICANT WEATHER AND/OR S TO VISIBILITY
.  
 
NOT ALL STATIONS ARE QUALITY CONTROLLED. USE DATA WITH CAUTION,  
ESPECIALLY DEWPOINT OBSERVATIONS.  
 
SCZ027-030-031-034>040-042>050-130800-   
..SOUTHEAST SOUTH CAROLINA
 
 
 
CITY SKY/WX TMP DP RH WIND PRES REMARKS
 
N CHARLESTON CLOUDY 71 69 93 N10 30.00F  
WATERFRONT PRK NOT AVBL  
MOUNT PLEASANT CLOUDY 72 72 100 CALM 29.99F  
JOHNS ISLAND FAIR 72 72 100 N5 30.00S  
PINOPOLIS NOT AVBL  
MONCKS CORNER FAIR 70 70 100 NE5 30.01F  
SUMMERVILLE FAIR 72 72 100 CALM 30.00F  
BEAUFORT MCAS RAIN 74 72 93 N9 29.99F  
BEAUFORT ARPT RAIN 73 72 94 N10 29.99S  
HILTON HEAD IS PTCLDY 75 73 94 CALM 29.99F  
WALTERBORO FOG 70 70 100 CALM 30.02F VSB 1  
ALLENDALE CLOUDY 72 72 100 CALM 30.02S  
   
..SOUTHERN MIDLANDS AND PEE DEE
 
 
 
CITY SKY/WX TMP DP RH WIND PRES REMARKS
 
GEORGETOWN FAIR 70 68 94 NE6 30.01F  
KINGSTREE CLOUDY 68 68 100 NE3 30.04S FOG  
ORANGEBURG PTCLDY 71 70 96 N5 30.04F  
BARNWELL CLOUDY 72 70 94 NE7 30.04S  
AIKEN CLOUDY 70 70 98 NE7 30.06S FOG  
MANNING FAIR 66 66 100 CALM 30.03F  
COLUMBIA PTCLDY 72 70 93 NE5 30.04F  
SUMTER CLEAR 69 67 95 CALM 30.04S  
FLORENCE PTCLDY 69 67 93 NE3 30.05F  
MYRTLE BEACH PTCLDY 70 69 97 N8 30.03F  
N MYRTLE BEACH PTCLDY 67 67 100 N8 30.02F  
 

 
 
GAZ063-065-086>088-099>101-113>116-118-119-134>141-150-130800-   
..SOUTHEAST GEORGIA
 
 
 
CITY SKY/WX TMP DP RH WIND PRES REMARKS
 
SAVANNAH ARPT CLOUDY 74 71 91 N6 29.99F  
HUNTER AAF CLOUDY 74 73 93 W6 29.97S  
FORT STEWART CLOUDY 74 72 93 CALM 29.97S  
STATESBORO CLOUDY 72 70 93 NE3 30.01S  
SYLVANIA MOSUNNY 73 71 96 CALM 30.02F  
CLAXTON CLOUDY 75 74 96 CALM 30.00S  
MILLEN CLOUDY 72 70 94 NE7 30.03S  
METTER CLOUDY 73 N/A N/A E5 30.01S  
REIDSVILLE NOT AVBL  
   
..CSRA, CENTRAL AND FAR SOUTHEAST GEORGIA
 
 
 
CITY SKY/WX TMP DP RH WIND PRES REMARKS
 
THOMSON CLOUDY 72 71 95 E5 30.05R  
AUGUSTA-BUSH MOCLDY 70 69 97 E3 30.03S  
AUGUSTA-DANIEL MOCLDY 72 70 93 E5 30.05S  
SWAINSBORO CLOUDY 72 72 100 NE5 30.03S FOG  
VIDALIA CLOUDY 72 72 100 NE5 30.01S  
EASTMAN FAIR 73 72 94 CALM 30.00S  
HAZLEHURST CLOUDY 74 73 96 CALM 29.99S  
ALMA CLEAR 74 73 97 CALM 29.99F  
WAYCROSS CLOUDY 74 73 95 SW3 30.00S  
JESUP CLOUDY 73 70 88 CALM 30.02F  
BAXLEY CLOUDY 72 72 100 CALM 30.00S  
BRUNSWICK CLOUDY 75 73 93 SW6 30.00F  
SAINT SIMONS CLOUDY 78 71 79 SW8 29.99F  
 

 
 
SCZ027-028-034-036>038-045-046-048>050-GAZ119-141-130800-   
..LAKE AND SUPPLEMENTAL COASTAL OBSERVATIONS
 
 
 
STATION/POSITION TIME TEMP WIND PRES WAVE SWELL
 
AIR SEA DIR/SP/G HT/PER HT/PER/DIR  
(UTC) (F) (DEG/KT/KT) (MB) (FT/S) (FT/S/D)  
WINYAH BAY 0545 72 360/ 3 1017.0  
LAKE MURRAY 0620 72 30/ 3/ 5 N/A  
CHRLSTN HARBOR 0624 74 85 10/ 6/ 8 1014.4  
ACE BASIN NERRS NOT AVBL  
FORT PULASKI 0624 76 85 270/ 6/ 8 1015.8  
SAPELO ISLAND 0600 76 220/ 8 1016.0  
 

 
 
ANZ835-935-AMZ111-154-330-350-352-354-370-450-454-472-130800-   
..C-MAN AND BUOY OBSERVATIONS
 
 
 
STATION/POSITION TIME TEMP WIND PRES WAVE SWELL
 
AIR SEA DIR/SP/G HT/PER HT/PER/DIR  
(UTC) (F) (DEG/KT/KT) (MB) (FT/S) (FT/S/D)  
BUOY 41004 0650 80 84 240/ 17/ 21 1014.8F  
BUOY 41008 0650 79 83 230/ 16/ 19 1014.7F 2/ 4 2/120/ 9  
FOLLY BEACH CMAN 0600 74 360/ 11/ 13 1016.2F  
CHAS PILOT BUOY 0608 78 80 310/ 12/ 16 1015.1F  
CHAS PILOT WAVE 0617 80 N/A 3/ 9  
CAPERS NEARSHORE NOT AVBL  
CAPERS NS WAVE NOT AVBL  
FRIPP NEARSHORE NOT AVBL  
 
 
STATION/POSITION TIME TEMP WIND PRES WAVE SWELL
 
AIR SEA DIR/SP/G HT/PER HT/PER/DIR  
(UTC) (F) (DEG/KT/KT) (MB) (FT/S) (FT/S/D)  
5E ST. MARYS GA 0630 78 81 N/A 2/ 4  
FRYING PAN BUOY 0650 77 79 30/ 12/ 14 1015.8F 3/ 6 2/210/ 6  
BUOY 41025 0650 84 340/ 12/ 16 1016.1S  
CAPE LOOKOUT NC 0600 72 350/ 12/ 12 1017.3F  
BUOY 41002 0650 82 350/ 2/ 4 N/A 4/ 7 3/320/ 7  
BUOY 41010 0650 84 86 190/ 6/ 8 1016.7F 2/ 8 2/120/ 8  
ST AUGUSTINE FL 0700 77 78 120/ 5/ 6 1017.2F  
 

 
 
 
CLICK HERE TO GO TO PREVIOUS BULLETINS.

The Nexlab SC Page
The Nexlab GA Page Main Text Page